UAL2175 LOWI-KEWR

Flight info

Callsign UAL2175
Flight time N/A
Altitude 34000
Route KPT DCT KUNOD DCT EDISA DCT PITES DCT REMBA DCT BUB DCT COA DCT FERIT M14 WESUL DCT LAM DCT HEMEL DCT TNT UQ4 WAL DCT PENIL UL28 LELDO M145 BAGSO DCT RESNO/M084F340 DCT 56N020W 57N030W 56N040W 54N050W DCT NEEKO/N0482F340 DCT PIKNA/N0484F360 DCT HITOR DCT TOPPS/N0487F380 DCT KJOHN DCT HANAA FLOSI4
Aircraft A346/H-SDE2E3FGHIJ3J4J5M1RWXY/LB1D1

Departure

Time 2026-05-07 14:48
Airport Innsbruck Airport (LOWI)

Arrival

Time N/A
Airport Newark Liberty International Airport (KEWR)
Time Latitude Longitude Altitude Speed Heading
2026-05-07 14:24 47.25853 11.35164 1915 ft 0 kts 171°
2026-05-07 14:37 47.25864 11.35162 1915 ft 4 kts 180°
2026-05-07 14:37 47.25892 11.35188 1899 ft 4 kts 255°
2026-05-07 14:37 47.25897 11.35226 1899 ft 4 kts 263°
2026-05-07 14:38 47.25898 11.35243 1915 ft 0 kts 261°
2026-05-07 14:39 47.25898 11.35242 1915 ft 1 kts 261°
2026-05-07 14:40 47.25897 11.35226 1915 ft 2 kts 261°
2026-05-07 14:40 47.25893 11.35190 1901 ft 5 kts 261°
2026-05-07 14:40 47.25887 11.35133 1912 ft 7 kts 261°
2026-05-07 14:40 47.25886 11.35126 1911 ft 0 kts 261°
2026-05-07 14:41 47.25885 11.35118 1909 ft 2 kts 261°
2026-05-07 14:41 47.25882 11.35088 1904 ft 4 kts 261°
2026-05-07 14:42 47.25877 11.35043 1901 ft 6 kts 261°
2026-05-07 14:42 47.25869 11.34968 1907 ft 8 kts 261°
2026-05-07 14:42 47.25859 11.34877 1915 ft 10 kts 261°
2026-05-07 14:43 47.25848 11.34772 1907 ft 11 kts 259°
2026-05-07 14:43 47.25834 11.34653 1905 ft 12 kts 260°
2026-05-07 14:43 47.25820 11.34522 1901 ft 13 kts 261°
2026-05-07 14:43 47.25804 11.34383 1902 ft 14 kts 260°
2026-05-07 14:44 47.25789 11.34236 1907 ft 15 kts 261°
2026-05-07 14:44 47.25773 11.34084 1907 ft 15 kts 263°
2026-05-07 14:44 47.25789 11.33932 1906 ft 15 kts 295°
2026-05-07 14:44 47.25849 11.33802 1902 ft 15 kts 306°
2026-05-07 14:45 47.25908 11.33678 1917 ft 14 kts 302°
2026-05-07 14:45 47.25927 11.33535 1913 ft 15 kts 263°
2026-05-07 14:45 47.25912 11.33381 1911 ft 16 kts 261°
2026-05-07 14:45 47.25869 11.33248 1898 ft 10 kts 234°
2026-05-07 14:46 47.25838 11.33152 1907 ft 11 kts 255°
2026-05-07 14:46 47.25850 11.33091 1899 ft 3 kts 348°
2026-05-07 14:46 47.25858 11.33093 1907 ft 0 kts 23°
2026-05-07 14:46 47.25874 11.33115 1902 ft 7 kts 56°
2026-05-07 14:47 47.25886 11.33167 1906 ft 0 kts 78°
2026-05-07 14:47 47.25901 11.33290 1907 ft 41 kts 81°
2026-05-07 14:48 47.25981 11.34033 1917 ft 104 kts 81°
2026-05-07 14:48 47.26124 11.35365 1903 ft 156 kts 81°
2026-05-07 14:48 47.26302 11.37079 2198 ft 173 kts 81°
2026-05-07 14:48 47.26475 11.38830 2819 ft 174 kts 81°
2026-05-07 14:49 47.26664 11.40616 3382 ft 178 kts 80°
2026-05-07 14:49 47.26855 11.42428 3921 ft 177 kts 80°
2026-05-07 14:49 47.27046 11.44238 4219 ft 186 kts 81°
2026-05-07 14:49 47.27293 11.46174 4485 ft 197 kts 73°
2026-05-07 14:50 47.27797 11.48113 4778 ft 210 kts 66°
2026-05-07 14:50 47.28459 11.50123 5067 ft 225 kts 64°
2026-05-07 14:50 47.28980 11.52386 5277 ft 245 kts 90°
2026-05-07 14:50 47.28491 11.54841 5574 ft 262 kts 128°
2026-05-07 14:51 47.27017 11.56476 6041 ft 274 kts 163°
2026-05-07 14:51 47.25144 11.56608 6895 ft 272 kts 197°
2026-05-07 14:51 47.23526 11.55223 7665 ft 272 kts 230°
2026-05-07 14:51 47.22750 11.52770 8529 ft 267 kts 268°
2026-05-07 14:52 47.23109 11.50122 9325 ft 267 kts 298°
2026-05-07 14:52 47.24061 11.47733 9819 ft 274 kts 291°
2026-05-07 14:52 47.24501 11.44972 10155 ft 282 kts 269°
2026-05-07 14:52 47.24118 11.42088 10412 ft 295 kts 248°
2026-05-07 14:53 47.23425 11.39178 10649 ft 308 kts 263°
2026-05-07 14:53 47.23603 11.36035 10883 ft 321 kts 287°
2026-05-07 14:53 47.24389 11.32890 11173 ft 334 kts 291°
2026-05-07 14:53 47.25282 11.29641 11413 ft 348 kts 291°
2026-05-07 14:54 47.26173 11.26263 11649 ft 360 kts 290°
2026-05-07 14:54 47.27059 11.22739 12006 ft 369 kts 289°
2026-05-07 14:54 47.27927 11.19175 12670 ft 369 kts 288°
2026-05-07 14:54 47.28781 11.15595 13312 ft 371 kts 288°
2026-05-07 14:55 47.29631 11.11986 13908 ft 374 kts 288°
2026-05-07 14:55 47.30482 11.08342 14461 ft 377 kts 288°
2026-05-07 14:55 47.31336 11.04668 14991 ft 380 kts 288°
2026-05-07 14:55 47.32195 11.00964 15527 ft 383 kts 288°
2026-05-07 14:56 47.33058 10.97231 16061 ft 386 kts 288°
2026-05-07 14:56 47.33928 10.93459 16664 ft 389 kts 288°
2026-05-07 14:56 47.34802 10.89664 17201 ft 392 kts 288°
2026-05-07 14:56 47.35681 10.85835 17708 ft 395 kts 288°
2026-05-07 14:57 47.36565 10.81980 18276 ft 397 kts 288°
2026-05-07 14:57 47.37441 10.78152 18722 ft 400 kts 288°
2026-05-07 14:57 47.38527 10.74351 19137 ft 404 kts 299°
2026-05-07 14:57 47.40176 10.70988 19584 ft 406 kts 311°
2026-05-07 14:58 47.42299 10.68224 20072 ft 410 kts 322°
2026-05-07 14:58 47.44645 10.65790 20519 ft 412 kts 324°
2026-05-07 14:58 47.47026 10.63379 20943 ft 415 kts 324°
2026-05-07 14:58 47.49418 10.60956 21339 ft 418 kts 324°
2026-05-07 14:59 47.51819 10.58512 21775 ft 420 kts 324°
2026-05-07 14:59 47.54234 10.56045 22207 ft 423 kts 324°
2026-05-07 14:59 47.56664 10.53553 22581 ft 426 kts 324°
2026-05-07 14:59 47.59112 10.51035 23009 ft 429 kts 323°
2026-05-07 15:00 47.61570 10.48507 23430 ft 431 kts 323°
2026-05-07 15:00 47.64044 10.45949 23795 ft 434 kts 323°
2026-05-07 15:00 47.66528 10.43377 24158 ft 436 kts 323°
2026-05-07 15:00 47.69023 10.40793 24484 ft 438 kts 323°
2026-05-07 15:01 47.71536 10.38189 24821 ft 441 kts 323°
2026-05-07 15:01 47.74043 10.35555 25172 ft 442 kts 322°
2026-05-07 15:01 47.76479 10.32747 25491 ft 444 kts 320°
2026-05-07 15:01 47.78885 10.29843 25818 ft 446 kts 320°
2026-05-07 15:02 47.81293 10.26908 26127 ft 448 kts 319°
2026-05-07 15:02 47.83706 10.23960 26444 ft 450 kts 320°
2026-05-07 15:02 47.86130 10.20996 26750 ft 452 kts 319°
2026-05-07 15:02 47.88537 10.18052 27078 ft 453 kts 319°
2026-05-07 15:03 47.91015 10.15020 27367 ft 456 kts 319°
2026-05-07 15:03 47.93445 10.12041 27631 ft 459 kts 319°
2026-05-07 15:03 47.95919 10.09004 27926 ft 461 kts 319°
2026-05-07 15:03 47.98400 10.05955 28246 ft 463 kts 319°
2026-05-07 15:04 48.00893 10.02888 28641 ft 462 kts 319°
2026-05-07 15:04 48.03382 9.99822 29139 ft 459 kts 319°
2026-05-07 15:04 48.05853 9.96775 29663 ft 457 kts 319°
2026-05-07 15:04 48.07471 9.94777 29957 ft 456 kts 319°
2026-05-07 15:05 48.09921 9.91749 30335 ft 455 kts 319°
2026-05-07 15:05 48.12359 9.88733 30673 ft 454 kts 319°
2026-05-07 15:05 48.14795 9.85715 30980 ft 454 kts 319°
2026-05-07 15:05 48.17238 9.82687 31264 ft 455 kts 319°
2026-05-07 15:06 48.19675 9.79656 31573 ft 455 kts 319°
2026-05-07 15:06 48.22115 9.76616 31855 ft 455 kts 319°
2026-05-07 15:06 48.24549 9.73579 32138 ft 455 kts 319°
2026-05-07 15:06 48.26980 9.70543 32427 ft 455 kts 318°
2026-05-07 15:07 48.29413 9.67491 32665 ft 456 kts 317°
2026-05-07 15:07 48.31771 9.64296 32876 ft 457 kts 314°
2026-05-07 15:07 48.34015 9.60908 33092 ft 457 kts 311°
2026-05-07 15:07 48.36136 9.57334 33307 ft 458 kts 308°
2026-05-07 15:08 48.38131 9.53596 33539 ft 458 kts 306°
2026-05-07 15:08 48.40075 9.49789 33751 ft 459 kts 306°
2026-05-07 15:08 48.42016 9.45947 33961 ft 460 kts 306°
2026-05-07 15:08 48.43956 9.42100 34009 ft 461 kts 306°
2026-05-07 15:09 48.47841 9.34389 34017 ft 462 kts 306°
2026-05-07 15:09 48.51724 9.26672 34024 ft 462 kts 306°
2026-05-07 15:10 48.55584 9.18980 34026 ft 461 kts 306°
2026-05-07 15:10 48.59474 9.11206 34025 ft 461 kts 306°
2026-05-07 15:11 48.63332 9.03477 34026 ft 460 kts 306°
2026-05-07 15:11 48.67193 8.95719 34025 ft 460 kts 306°
2026-05-07 15:12 48.71046 8.87956 34029 ft 460 kts 306°
2026-05-07 15:12 48.74891 8.80183 34043 ft 460 kts 306°
2026-05-07 15:13 48.78716 8.72425 34034 ft 461 kts 306°
2026-05-07 15:13 48.82558 8.64615 34036 ft 461 kts 306°
2026-05-07 15:14 48.86397 8.56790 34038 ft 461 kts 306°
2026-05-07 15:14 48.90223 8.48963 34039 ft 461 kts 306°
2026-05-07 15:15 48.94044 8.41121 34044 ft 461 kts 305°
2026-05-07 15:15 48.97856 8.33274 34048 ft 461 kts 305°
2026-05-07 15:16 49.01454 8.25191 34053 ft 461 kts 302°
2026-05-07 15:16 49.04949 8.16969 34047 ft 461 kts 302°
2026-05-07 15:17 49.08436 8.08737 34051 ft 461 kts 302°
2026-05-07 15:17 49.11900 8.00538 34051 ft 462 kts 302°
2026-05-07 15:18 49.15379 7.92282 34051 ft 462 kts 302°
2026-05-07 15:18 49.18852 7.84013 34052 ft 461 kts 302°
2026-05-07 15:19 49.22318 7.75737 34052 ft 462 kts 302°
2026-05-07 15:19 49.25779 7.67447 34052 ft 461 kts 302°
2026-05-07 15:20 49.29234 7.59141 34057 ft 462 kts 302°
2026-05-07 15:20 49.32685 7.50825 34049 ft 461 kts 302°
2026-05-07 15:21 49.36103 7.42562 34053 ft 461 kts 302°
2026-05-07 15:21 49.39533 7.34244 34053 ft 461 kts 302°
2026-05-07 15:22 49.42964 7.25898 34047 ft 460 kts 302°
2026-05-07 15:22 49.46377 7.17568 34046 ft 460 kts 302°
2026-05-07 15:23 49.49778 7.09237 34044 ft 458 kts 302°
2026-05-07 15:23 49.53161 7.00928 34045 ft 457 kts 302°
2026-05-07 15:24 49.56543 6.92589 34041 ft 459 kts 302°
2026-05-07 15:24 49.59921 6.84240 34041 ft 459 kts 302°
2026-05-07 15:25 49.63275 6.75920 34036 ft 459 kts 302°
2026-05-07 15:25 49.66639 6.67554 34036 ft 458 kts 301°
2026-05-07 15:26 49.69995 6.59179 34033 ft 458 kts 302°
2026-05-07 15:26 49.73669 6.51125 34042 ft 458 kts 307°
2026-05-07 15:27 49.77837 6.43648 34046 ft 459 kts 311°
2026-05-07 15:27 49.82176 6.36384 34045 ft 459 kts 312°
2026-05-07 15:28 49.86529 6.29106 34047 ft 460 kts 311°
2026-05-07 15:28 49.90836 6.21859 34044 ft 460 kts 311°
2026-05-07 15:29 49.95169 6.14542 34044 ft 460 kts 311°
2026-05-07 15:29 49.99495 6.07215 34044 ft 460 kts 311°
2026-05-07 15:30 50.03825 5.99863 34056 ft 459 kts 311°
2026-05-07 15:30 50.08141 5.92513 34056 ft 460 kts 310°
2026-05-07 15:31 50.12455 5.85148 34063 ft 460 kts 310°
2026-05-07 15:31 50.16764 5.77764 34063 ft 460 kts 310°
2026-05-07 15:32 50.21067 5.70370 34052 ft 460 kts 310°
2026-05-07 15:32 50.25364 5.62967 34064 ft 460 kts 310°
2026-05-07 15:33 50.29632 5.55593 34070 ft 460 kts 310°
2026-05-07 15:33 50.33934 5.48141 34065 ft 461 kts 310°
2026-05-07 15:34 50.38242 5.40652 34064 ft 461 kts 310°
2026-05-07 15:34 50.42536 5.33164 34068 ft 461 kts 310°
2026-05-07 15:35 50.46826 5.25663 34070 ft 461 kts 310°
2026-05-07 15:35 50.51078 5.18205 34071 ft 461 kts 310°
2026-05-07 15:36 50.55352 5.10685 34083 ft 461 kts 310°
2026-05-07 15:36 50.59637 5.03125 34077 ft 462 kts 310°
2026-05-07 15:37 50.63917 4.95547 34070 ft 462 kts 309°
2026-05-07 15:37 50.68329 4.88163 34077 ft 463 kts 313°
2026-05-07 15:38 50.72922 4.81009 34074 ft 463 kts 313°
2026-05-07 15:38 50.77488 4.73893 34076 ft 463 kts 313°
2026-05-07 15:39 50.82073 4.66703 34093 ft 465 kts 313°
2026-05-07 15:39 50.86632 4.59432 34082 ft 464 kts 311°
2026-05-07 15:40 50.90777 4.51599 34080 ft 463 kts 305°
2026-05-07 15:40 50.94378 4.43130 34081 ft 462 kts 300°
2026-05-07 15:41 50.97722 4.34412 34081 ft 462 kts 300°
2026-05-07 15:41 51.01052 4.25669 34080 ft 462 kts 300°
2026-05-07 15:42 51.04378 4.16923 34076 ft 462 kts 300°
2026-05-07 15:42 51.07681 4.08217 34075 ft 462 kts 300°
2026-05-07 15:43 51.11000 3.99445 34067 ft 462 kts 299°
2026-05-07 15:43 51.14312 3.90658 34063 ft 462 kts 299°
2026-05-07 15:44 51.17617 3.81860 34063 ft 462 kts 299°
2026-05-07 15:44 51.20911 3.73060 34062 ft 461 kts 299°
2026-05-07 15:45 51.24170 3.64322 34062 ft 460 kts 299°
2026-05-07 15:45 51.27441 3.55513 34064 ft 460 kts 299°
2026-05-07 15:46 51.32085 3.42015 34069 ft 462 kts 293°
2026-05-07 15:47 51.34471 3.32475 34077 ft 461 kts 287°
2026-05-07 15:47 51.36205 3.22603 34082 ft 459 kts 281°
2026-05-07 15:48 51.37398 3.12554 34071 ft 459 kts 279°
2026-05-07 15:48 51.38516 3.02465 34077 ft 459 kts 279°
2026-05-07 15:49 51.39629 2.92364 34074 ft 459 kts 279°
2026-05-07 15:49 51.40727 2.82348 34083 ft 459 kts 278°
2026-05-07 15:50 51.41830 2.72202 34080 ft 458 kts 278°
2026-05-07 15:50 51.42910 2.62180 34075 ft 458 kts 278°
2026-05-07 15:51 51.43989 2.52093 34079 ft 458 kts 278°
2026-05-07 15:51 51.45059 2.42006 34086 ft 458 kts 278°
2026-05-07 15:52 51.45950 2.33539 34090 ft 458 kts 278°
2026-05-07 15:52 51.47004 2.23442 34081 ft 458 kts 278°
2026-05-07 15:53 51.48049 2.13339 34080 ft 458 kts 278°
2026-05-07 15:53 51.49079 2.03296 34079 ft 458 kts 278°
2026-05-07 15:54 51.50110 1.93155 34085 ft 458 kts 278°
2026-05-07 15:54 51.51129 1.83051 34084 ft 457 kts 278°
2026-05-07 15:55 51.52136 1.72957 34086 ft 457 kts 278°
2026-05-07 15:55 51.53135 1.62863 34085 ft 457 kts 277°
2026-05-07 15:56 51.54126 1.52754 34081 ft 457 kts 277°
2026-05-07 15:56 51.55106 1.42659 34083 ft 457 kts 277°
2026-05-07 15:57 51.56079 1.32552 34078 ft 457 kts 277°
2026-05-07 15:57 51.57037 1.22501 34087 ft 458 kts 277°
2026-05-07 15:58 51.57996 1.12346 34073 ft 459 kts 277°
2026-05-07 15:58 51.58946 1.02173 34075 ft 459 kts 277°
2026-05-07 15:59 51.59890 0.91979 34078 ft 459 kts 277°
2026-05-07 15:59 51.60826 0.81755 34081 ft 459 kts 277°
2026-05-07 16:00 51.61748 0.71585 34074 ft 458 kts 277°
2026-05-07 16:00 51.62902 0.61443 34077 ft 459 kts 279°
2026-05-07 16:01 51.64104 0.51392 34079 ft 459 kts 279°
2026-05-07 16:01 51.65289 0.41281 34073 ft 458 kts 279°
2026-05-07 16:02 51.65843 0.31087 34069 ft 456 kts 268°
2026-05-07 16:02 51.65854 0.20852 34071 ft 457 kts 272°
2026-05-07 16:03 51.66738 0.10692 34071 ft 459 kts 281°
2026-05-07 16:03 51.68657 0.00859 34069 ft 461 kts 290°
2026-05-07 16:04 51.71260 -0.08591 34080 ft 461 kts 292°
2026-05-07 16:04 51.73919 -0.18011 34082 ft 460 kts 292°
2026-05-07 16:05 51.76580 -0.27425 34077 ft 461 kts 294°
2026-05-07 16:05 51.79928 -0.36301 34053 ft 464 kts 304°
2026-05-07 16:06 51.84253 -0.44144 34054 ft 472 kts 315°
2026-05-07 16:06 51.89475 -0.50662 34053 ft 476 kts 326°
2026-05-07 16:07 51.95106 -0.56203 34049 ft 477 kts 327°
2026-05-07 16:07 52.00804 -0.61715 34047 ft 477 kts 327°
2026-05-07 16:08 52.06494 -0.67271 34054 ft 478 kts 327°
2026-05-07 16:08 52.12209 -0.72882 34054 ft 480 kts 327°
2026-05-07 16:09 52.17928 -0.78514 34050 ft 480 kts 327°
2026-05-07 16:09 52.23645 -0.84164 34048 ft 480 kts 327°
2026-05-07 16:10 52.29329 -0.89803 34042 ft 481 kts 328°
2026-05-07 16:10 52.35079 -0.95531 34051 ft 485 kts 328°
2026-05-07 16:11 52.40845 -1.01278 34062 ft 485 kts 328°
2026-05-07 16:11 52.46610 -1.07046 34031 ft 485 kts 328°
2026-05-07 16:12 52.52364 -1.12826 34019 ft 485 kts 328°
2026-05-07 16:12 52.58141 -1.18650 34006 ft 488 kts 328°
2026-05-07 16:13 52.63929 -1.24496 33998 ft 488 kts 328°
2026-05-07 16:13 52.69716 -1.30362 33998 ft 488 kts 328°
2026-05-07 16:14 52.75499 -1.36242 34023 ft 488 kts 328°
2026-05-07 16:14 52.81273 -1.42144 34024 ft 492 kts 328°
2026-05-07 16:15 52.87103 -1.48106 34023 ft 493 kts 328°
2026-05-07 16:15 52.92942 -1.54100 34040 ft 493 kts 328°
2026-05-07 16:16 52.98687 -1.60308 34038 ft 492 kts 322°
2026-05-07 16:16 53.03687 -1.68086 34036 ft 494 kts 310°
2026-05-07 16:17 53.07631 -1.77428 34045 ft 493 kts 297°
2026-05-07 16:17 53.10419 -1.87752 34048 ft 491 kts 289°
2026-05-07 16:18 53.12884 -1.98387 34034 ft 491 kts 289°
2026-05-07 16:18 53.15351 -2.09019 34042 ft 490 kts 289°
2026-05-07 16:19 53.17820 -2.19623 34036 ft 490 kts 289°
2026-05-07 16:19 53.20285 -2.30234 34027 ft 490 kts 289°
2026-05-07 16:20 53.22744 -2.40859 34029 ft 490 kts 289°
2026-05-07 16:20 53.25183 -2.51450 34024 ft 492 kts 289°
2026-05-07 16:21 53.27634 -2.62141 34016 ft 491 kts 289°
2026-05-07 16:21 53.30062 -2.72796 34009 ft 490 kts 288°
2026-05-07 16:22 53.32480 -2.83465 34037 ft 490 kts 288°
2026-05-07 16:22 53.34892 -2.94165 34020 ft 490 kts 288°
2026-05-07 16:23 53.37352 -3.04836 34031 ft 491 kts 291°
2026-05-07 16:23 53.40358 -3.15129 34017 ft 491 kts 297°
2026-05-07 16:24 53.44010 -3.24819 33999 ft 492 kts 303°
2026-05-07 16:24 53.47972 -3.34115 33999 ft 492 kts 304°
2026-05-07 16:25 53.51965 -3.43459 34000 ft 492 kts 303°
2026-05-07 16:25 53.55933 -3.52836 33997 ft 492 kts 303°
2026-05-07 16:26 53.59779 -3.62366 33996 ft 491 kts 299°
2026-05-07 16:26 53.63002 -3.72439 34002 ft 485 kts 292°
2026-05-07 16:27 53.65597 -3.82857 33999 ft 484 kts 289°
2026-05-07 16:27 53.68108 -3.93485 33997 ft 484 kts 289°
2026-05-07 16:28 53.70285 -4.04218 33986 ft 487 kts 282°
2026-05-07 16:28 53.71684 -4.15394 33989 ft 484 kts 275°
2026-05-07 16:29 53.72356 -4.26677 33996 ft 479 kts 270°
2026-05-07 16:29 53.72763 -4.37901 33989 ft 479 kts 270°
2026-05-07 16:30 53.73185 -4.49152 33989 ft 478 kts 270°
2026-05-07 16:30 53.73578 -4.60322 33980 ft 478 kts 270°
2026-05-07 16:31 53.73958 -4.71559 33998 ft 478 kts 270°
2026-05-07 16:31 53.74326 -4.82742 33979 ft 476 kts 270°
2026-05-07 16:32 53.74691 -4.93925 33974 ft 475 kts 270°
2026-05-07 16:32 53.74763 -5.05079 33969 ft 473 kts 264°
2026-05-07 16:33 53.74070 -5.16097 33972 ft 469 kts 257°
2026-05-07 16:33 53.72628 -5.26800 33982 ft 461 kts 251°
2026-05-07 16:34 53.70759 -5.37088 33973 ft 457 kts 254°
2026-05-07 16:34 53.69814 -5.47684 33972 ft 461 kts 264°
2026-05-07 16:35 53.70044 -5.58567 33969 ft 466 kts 275°
2026-05-07 16:35 53.71470 -5.69299 33965 ft 470 kts 283°
2026-05-07 16:36 53.73386 -5.79871 33963 ft 470 kts 284°
2026-05-07 16:36 53.75314 -5.90453 33953 ft 470 kts 284°
2026-05-07 16:37 53.77221 -6.01036 33950 ft 470 kts 283°
2026-05-07 16:37 53.79100 -6.11558 33941 ft 470 kts 283°
2026-05-07 16:38 53.80978 -6.22151 33943 ft 469 kts 283°
2026-05-07 16:38 53.82850 -6.32765 33942 ft 467 kts 283°
2026-05-07 16:39 53.84698 -6.43304 33940 ft 467 kts 283°
2026-05-07 16:39 53.86537 -6.53876 33933 ft 466 kts 283°
2026-05-07 16:40 53.88366 -6.64446 33929 ft 466 kts 283°
2026-05-07 16:40 53.89878 -6.73232 33923 ft 466 kts 283°
2026-05-07 16:41 53.91982 -6.85526 33934 ft 465 kts 282°
2026-05-07 16:41 53.93776 -6.96080 33913 ft 464 kts 282°
2026-05-07 16:42 53.95259 -7.04848 33920 ft 464 kts 282°
2026-05-07 16:42 53.97033 -7.15399 33917 ft 464 kts 282°
2026-05-07 16:43 53.98796 -7.25950 33909 ft 464 kts 282°
2026-05-07 16:43 54.00551 -7.36511 33913 ft 464 kts 282°
2026-05-07 16:44 54.02293 -7.47076 33920 ft 463 kts 282°
2026-05-07 16:44 54.04028 -7.57646 33913 ft 463 kts 282°
2026-05-07 16:45 54.05753 -7.68220 33916 ft 463 kts 282°
2026-05-07 16:45 54.07467 -7.78794 33912 ft 463 kts 282°
2026-05-07 16:46 54.09173 -7.89389 33911 ft 463 kts 282°
2026-05-07 16:46 54.10865 -7.99973 33917 ft 462 kts 282°
2026-05-07 16:47 54.12550 -8.10567 33914 ft 462 kts 282°
2026-05-07 16:47 54.14227 -8.21166 33914 ft 462 kts 282°
2026-05-07 16:48 54.15882 -8.31704 33894 ft 462 kts 282°
2026-05-07 16:48 54.17538 -8.42322 33897 ft 462 kts 282°
2026-05-07 16:49 54.19185 -8.52942 33915 ft 461 kts 282°
2026-05-07 16:49 54.20824 -8.63558 33924 ft 461 kts 281°
2026-05-07 16:50 54.22449 -8.74184 33920 ft 461 kts 281°
2026-05-07 16:50 54.24064 -8.84821 33920 ft 461 kts 281°
2026-05-07 16:51 54.25670 -8.95458 33909 ft 461 kts 281°
2026-05-07 16:51 54.27268 -9.06116 33914 ft 461 kts 281°
2026-05-07 16:52 54.28852 -9.16696 33913 ft 461 kts 280°
2026-05-07 16:52 54.30426 -9.27348 33910 ft 461 kts 280°
2026-05-07 16:53 54.31991 -9.38007 33905 ft 461 kts 280°
2026-05-07 16:53 54.33547 -9.48670 33911 ft 461 kts 280°
2026-05-07 16:54 54.35095 -9.59345 33918 ft 460 kts 280°
2026-05-07 16:54 54.36638 -9.70013 33949 ft 459 kts 279°
2026-05-07 16:55 54.38165 -9.80669 33922 ft 459 kts 278°
2026-05-07 16:55 54.39667 -9.91271 33919 ft 459 kts 278°
2026-05-07 16:56 54.41170 -10.01938 33915 ft 459 kts 278°
2026-05-07 16:56 54.43407 -10.17941 33920 ft 459 kts 278°
2026-05-07 16:57 54.44887 -10.28614 33918 ft 458 kts 278°
2026-05-07 16:57 54.46356 -10.39286 33922 ft 458 kts 278°
2026-05-07 16:58 54.47816 -10.49966 33918 ft 458 kts 278°
2026-05-07 16:58 54.49265 -10.60644 33914 ft 458 kts 278°
2026-05-07 16:59 54.50707 -10.71344 33915 ft 458 kts 278°
2026-05-07 16:59 54.52136 -10.82032 33933 ft 457 kts 278°
2026-05-07 17:00 54.53544 -10.92616 33927 ft 454 kts 277°
2026-05-07 17:00 54.54946 -11.03251 33921 ft 454 kts 277°
2026-05-07 17:01 54.56336 -11.13886 33918 ft 454 kts 277°
2026-05-07 17:01 54.57717 -11.24526 33917 ft 454 kts 277°
2026-05-07 17:02 54.59089 -11.35166 33917 ft 454 kts 277°
2026-05-07 17:02 54.60444 -11.45753 33916 ft 454 kts 277°
2026-05-07 17:03 54.61797 -11.56405 33918 ft 454 kts 277°
2026-05-07 17:03 54.63140 -11.67063 33917 ft 454 kts 277°
2026-05-07 17:04 54.64473 -11.77718 33916 ft 453 kts 277°
2026-05-07 17:04 54.65801 -11.88416 33917 ft 453 kts 277°
2026-05-07 17:05 54.67102 -11.98995 33948 ft 452 kts 277°
2026-05-07 17:05 54.68402 -12.09621 33934 ft 450 kts 277°
2026-05-07 17:06 54.69690 -12.20239 33923 ft 450 kts 277°
2026-05-07 17:06 54.70967 -12.30851 33923 ft 450 kts 277°
2026-05-07 17:07 54.72234 -12.41469 33925 ft 450 kts 277°
2026-05-07 17:07 54.73491 -12.52083 33920 ft 449 kts 277°
2026-05-07 17:08 54.74733 -12.62692 33929 ft 448 kts 277°
2026-05-07 17:08 54.75960 -12.73197 33935 ft 448 kts 277°
2026-05-07 17:09 54.77185 -12.83790 33934 ft 448 kts 277°
2026-05-07 17:09 54.78401 -12.94390 33923 ft 447 kts 277°
2026-05-07 17:10 54.79608 -13.04998 33927 ft 447 kts 277°
2026-05-07 17:10 54.80801 -13.15605 33933 ft 447 kts 277°
2026-05-07 17:11 54.81991 -13.26247 33944 ft 449 kts 277°
2026-05-07 17:11 54.83167 -13.36840 33943 ft 450 kts 277°
2026-05-07 17:12 54.84342 -13.47513 33939 ft 450 kts 277°
2026-05-07 17:12 54.85506 -13.58188 33938 ft 449 kts 277°
2026-05-07 17:13 54.86663 -13.68894 33941 ft 449 kts 277°
2026-05-07 17:13 54.87808 -13.79595 33935 ft 450 kts 277°
2026-05-07 17:14 54.88946 -13.90310 33940 ft 451 kts 277°
2026-05-07 17:14 54.90076 -14.01036 33943 ft 451 kts 277°
2026-05-07 17:15 54.91188 -14.11699 33959 ft 450 kts 276°
2026-05-07 17:15 54.92298 -14.22436 33953 ft 450 kts 276°
2026-05-07 17:16 54.93399 -14.33186 33966 ft 451 kts 276°
2026-05-07 17:16 54.94492 -14.43983 33965 ft 453 kts 276°
2026-05-07 17:17 54.95580 -14.54789 33968 ft 453 kts 276°
2026-05-07 17:17 54.96651 -14.65547 33967 ft 453 kts 276°
2026-05-07 17:18 54.97718 -14.76374 33964 ft 453 kts 276°
2026-05-07 17:18 54.98774 -14.87199 33971 ft 453 kts 276°
2026-05-07 17:19 55.00055 -14.97993 33972 ft 456 kts 281°
2026-05-07 17:19 55.01953 -15.08580 33980 ft 459 kts 287°
2026-05-07 17:20 55.04259 -15.18992 33980 ft 459 kts 288°
2026-05-07 17:20 55.06583 -15.29372 33969 ft 459 kts 288°
2026-05-07 17:21 55.08899 -15.39777 33986 ft 459 kts 288°
2026-05-07 17:21 55.11205 -15.50198 33983 ft 459 kts 288°
2026-05-07 17:22 55.13485 -15.60579 33989 ft 460 kts 288°
2026-05-07 17:22 55.15784 -15.71072 34000 ft 460 kts 288°
2026-05-07 17:23 55.18065 -15.81538 33996 ft 460 kts 288°
2026-05-07 17:23 55.20338 -15.92021 33996 ft 460 kts 288°
2026-05-07 17:24 55.22602 -16.02518 33992 ft 460 kts 288°
2026-05-07 17:24 55.24853 -16.13021 34020 ft 460 kts 288°
2026-05-07 17:25 55.27101 -16.23565 34005 ft 460 kts 288°
2026-05-07 17:25 55.29323 -16.34025 34011 ft 460 kts 288°
2026-05-07 17:26 55.31553 -16.44575 34010 ft 460 kts 288°
2026-05-07 17:26 55.33775 -16.55149 34011 ft 460 kts 288°
2026-05-07 17:27 55.35986 -16.65722 34019 ft 460 kts 288°
2026-05-07 17:27 55.38186 -16.76302 34018 ft 460 kts 288°
2026-05-07 17:28 55.40376 -16.86895 34022 ft 460 kts 288°
2026-05-07 17:28 55.42560 -16.97531 34028 ft 461 kts 288°
2026-05-07 17:29 55.44374 -17.06382 34022 ft 461 kts 288°
2026-05-07 17:29 55.46900 -17.18773 34022 ft 461 kts 288°
2026-05-07 17:30 55.48714 -17.27728 34023 ft 461 kts 288°
2026-05-07 17:30 55.50852 -17.38336 34026 ft 461 kts 288°
2026-05-07 17:31 55.52996 -17.49031 34032 ft 461 kts 288°
2026-05-07 17:31 55.55130 -17.59740 34030 ft 461 kts 288°
2026-05-07 17:32 55.57254 -17.70459 34044 ft 462 kts 288°
2026-05-07 17:32 55.59369 -17.81182 34038 ft 461 kts 288°
2026-05-07 17:33 55.61478 -17.91928 34036 ft 461 kts 288°
2026-05-07 17:33 55.63578 -18.02699 34045 ft 461 kts 287°
2026-05-07 17:34 55.65669 -18.13483 34047 ft 462 kts 287°
2026-05-07 17:34 55.67735 -18.24201 34051 ft 462 kts 287°
2026-05-07 17:35 55.69808 -18.35012 34056 ft 462 kts 287°
2026-05-07 17:35 55.71872 -18.45825 34071 ft 462 kts 288°
2026-05-07 17:36 55.73920 -18.56636 34066 ft 462 kts 288°
2026-05-07 17:36 55.75964 -18.67471 34064 ft 462 kts 288°
2026-05-07 17:37 55.77991 -18.78278 34066 ft 463 kts 287°
2026-05-07 17:37 55.80014 -18.89131 34054 ft 462 kts 287°
2026-05-07 17:38 55.82029 -19.00007 34069 ft 461 kts 287°
2026-05-07 17:38 55.84030 -19.10871 34072 ft 462 kts 287°
2026-05-07 17:39 55.86027 -19.21770 34073 ft 463 kts 287°
2026-05-07 17:39 55.88018 -19.32714 34086 ft 463 kts 287°
2026-05-07 17:40 55.89998 -19.43648 34081 ft 463 kts 287°
2026-05-07 17:40 55.91955 -19.54515 34083 ft 462 kts 287°
2026-05-07 17:41 55.93908 -19.65453 34089 ft 463 kts 287°
2026-05-07 17:41 55.95857 -19.76407 34090 ft 463 kts 287°
2026-05-07 17:42 55.97804 -19.87420 34100 ft 464 kts 287°
2026-05-07 17:42 55.99735 -19.98455 34095 ft 463 kts 286°
2026-05-07 17:43 56.01395 -20.09579 34109 ft 462 kts 284°
2026-05-07 17:43 56.02983 -20.20750 34110 ft 463 kts 284°
2026-05-07 17:44 56.04567 -20.31982 34097 ft 464 kts 284°
2026-05-07 17:44 56.06135 -20.43165 34112 ft 464 kts 284°
2026-05-07 17:45 56.07698 -20.54377 34109 ft 463 kts 284°
2026-05-07 17:45 56.09251 -20.65606 34112 ft 464 kts 284°
2026-05-07 17:46 56.10795 -20.76851 34116 ft 464 kts 284°
2026-05-07 17:46 56.12329 -20.88110 34123 ft 464 kts 284°
2026-05-07 17:47 56.13847 -20.99363 34126 ft 463 kts 284°
2026-05-07 17:47 56.15352 -21.10583 34132 ft 464 kts 284°
2026-05-07 17:48 56.16859 -21.21878 34131 ft 464 kts 284°
2026-05-07 17:48 56.18353 -21.33176 34132 ft 464 kts 284°
2026-05-07 17:49 56.19836 -21.44478 34136 ft 464 kts 284°
2026-05-07 17:49 56.21310 -21.55798 34139 ft 464 kts 284°
2026-05-07 17:50 56.22776 -21.67162 34128 ft 464 kts 284°
2026-05-07 17:50 56.24226 -21.78486 34148 ft 464 kts 284°
2026-05-07 17:51 56.25669 -21.89829 34156 ft 464 kts 284°
2026-05-07 17:51 56.27091 -22.01116 34150 ft 464 kts 284°
2026-05-07 17:52 56.28515 -22.12484 34160 ft 464 kts 284°
2026-05-07 17:52 56.29925 -22.23846 34159 ft 464 kts 284°
2026-05-07 17:53 56.31324 -22.35216 34144 ft 464 kts 284°
2026-05-07 17:53 56.32710 -22.46587 34159 ft 464 kts 284°
2026-05-07 17:54 56.34088 -22.57950 34165 ft 464 kts 284°
2026-05-07 17:54 56.35457 -22.69345 34170 ft 464 kts 284°
2026-05-07 17:55 56.36812 -22.80730 34175 ft 464 kts 284°
2026-05-07 17:55 56.38160 -22.92145 34176 ft 464 kts 284°
2026-05-07 17:56 56.39487 -23.03482 34151 ft 464 kts 284°
2026-05-07 17:56 56.40811 -23.14912 34167 ft 463 kts 284°
2026-05-07 17:57 56.41905 -23.24397 34183 ft 463 kts 284°
2026-05-07 17:57 56.43432 -23.37759 34186 ft 463 kts 284°
2026-05-07 17:58 56.44717 -23.49115 34190 ft 463 kts 284°
2026-05-07 17:58 56.45998 -23.60549 34195 ft 463 kts 284°
2026-05-07 17:59 56.47270 -23.71995 34195 ft 463 kts 284°
2026-05-07 17:59 56.48526 -23.83434 34186 ft 462 kts 284°
2026-05-07 18:00 56.49773 -23.94858 34199 ft 462 kts 284°
2026-05-07 18:00 56.51010 -24.06281 34205 ft 462 kts 284°
2026-05-07 18:01 56.52237 -24.17719 34206 ft 462 kts 284°
2026-05-07 18:01 56.53452 -24.29167 34202 ft 462 kts 284°
2026-05-07 18:02 56.55254 -24.46347 34200 ft 462 kts 283°
2026-05-07 18:03 56.56448 -24.57854 34196 ft 462 kts 283°
2026-05-07 18:03 56.57626 -24.69341 34207 ft 462 kts 283°
2026-05-07 18:04 56.58794 -24.80829 34209 ft 462 kts 283°
2026-05-07 18:04 56.59951 -24.92307 34217 ft 463 kts 283°
2026-05-07 18:05 56.61101 -25.03828 34221 ft 463 kts 283°
2026-05-07 18:05 56.62239 -25.15352 34202 ft 463 kts 283°
2026-05-07 18:06 56.63359 -25.26854 34218 ft 461 kts 284°
2026-05-07 18:06 56.64464 -25.38249 34224 ft 461 kts 283°
2026-05-07 18:07 56.65573 -25.49807 34238 ft 461 kts 283°
2026-05-07 18:07 56.66664 -25.61308 34237 ft 461 kts 283°
2026-05-07 18:08 56.67745 -25.72820 34240 ft 461 kts 283°
2026-05-07 18:08 56.68816 -25.84340 34242 ft 461 kts 283°
2026-05-07 18:09 56.69868 -25.95835 34230 ft 459 kts 284°
2026-05-07 18:09 56.70908 -26.07253 34243 ft 458 kts 283°
2026-05-07 18:10 56.71942 -26.18725 34252 ft 458 kts 283°
2026-05-07 18:10 56.72965 -26.30204 34256 ft 459 kts 283°
2026-05-07 18:11 56.73977 -26.41700 34254 ft 459 kts 283°
2026-05-07 18:11 56.74978 -26.53194 34254 ft 459 kts 283°
2026-05-07 18:12 56.75964 -26.64684 34250 ft 457 kts 283°
2026-05-07 18:12 56.76940 -26.76145 34262 ft 456 kts 283°
2026-05-07 18:13 56.77907 -26.87599 34270 ft 456 kts 283°
2026-05-07 18:13 56.78861 -26.99053 34273 ft 456 kts 283°
2026-05-07 18:14 56.79807 -27.10543 34272 ft 456 kts 283°
2026-05-07 18:14 56.80734 -27.21950 34278 ft 456 kts 283°
2026-05-07 18:15 56.81656 -27.33436 34263 ft 456 kts 283°
2026-05-07 18:15 56.82564 -27.44886 34286 ft 454 kts 283°
2026-05-07 18:16 56.83463 -27.56328 34281 ft 454 kts 283°
2026-05-07 18:16 56.84204 -27.65869 34283 ft 454 kts 283°
2026-05-07 18:17 56.85083 -27.77323 34296 ft 454 kts 283°
2026-05-07 18:17 56.85952 -27.88783 34292 ft 454 kts 283°
2026-05-07 18:18 56.86810 -28.00251 34293 ft 454 kts 283°
2026-05-07 18:18 56.87655 -28.11736 34287 ft 452 kts 283°
2026-05-07 18:19 56.88487 -28.23135 34301 ft 452 kts 283°
2026-05-07 18:19 56.89304 -28.34473 34303 ft 452 kts 283°
2026-05-07 18:20 56.90115 -28.45886 34304 ft 452 kts 283°
2026-05-07 18:20 56.90916 -28.57317 34308 ft 452 kts 283°
2026-05-07 18:21 56.91707 -28.68746 34314 ft 452 kts 283°
2026-05-07 18:21 56.92483 -28.80174 34292 ft 449 kts 283°
2026-05-07 18:22 56.93239 -28.91440 34316 ft 447 kts 283°
2026-05-07 18:22 56.93993 -29.02762 34321 ft 447 kts 283°
2026-05-07 18:23 56.94736 -29.14094 34319 ft 447 kts 283°
2026-05-07 18:23 56.95466 -29.25420 34324 ft 447 kts 283°
2026-05-07 18:24 56.96187 -29.36754 34332 ft 447 kts 283°
2026-05-07 18:24 56.96893 -29.48041 34324 ft 447 kts 283°
2026-05-07 18:25 56.97581 -29.59304 34325 ft 442 kts 283°
2026-05-07 18:25 56.98267 -29.70518 34332 ft 441 kts 283°
2026-05-07 18:26 56.98939 -29.81733 34338 ft 441 kts 283°
2026-05-07 18:26 56.99530 -29.92961 34338 ft 444 kts 280°
2026-05-07 18:27 56.99589 -30.04356 34341 ft 449 kts 275°
2026-05-07 18:27 56.99058 -30.15860 34350 ft 453 kts 271°
2026-05-07 18:28 56.98367 -30.27333 34330 ft 448 kts 272°
2026-05-07 18:28 56.97683 -30.38670 34354 ft 447 kts 272°
2026-05-07 18:29 56.96990 -30.50014 34353 ft 447 kts 272°
2026-05-07 18:29 56.96289 -30.61280 34354 ft 447 kts 272°
2026-05-07 18:30 56.95571 -30.72622 34360 ft 447 kts 272°
2026-05-07 18:30 56.94840 -30.83970 34304 ft 446 kts 272°
2026-05-07 18:31 56.94099 -30.95130 34352 ft 438 kts 273°
2026-05-07 18:31 56.93372 -31.06207 34363 ft 437 kts 273°
2026-05-07 18:32 56.92634 -31.17298 34368 ft 437 kts 273°
2026-05-07 18:32 56.91888 -31.28300 34366 ft 437 kts 273°
2026-05-07 18:33 56.91128 -31.39360 34363 ft 437 kts 273°
2026-05-07 18:33 56.90356 -31.50424 34365 ft 437 kts 272°
2026-05-07 18:34 56.89574 -31.61488 34371 ft 437 kts 272°
2026-05-07 18:34 56.88782 -31.72542 34371 ft 438 kts 272°
2026-05-07 18:35 56.87980 -31.83603 34373 ft 438 kts 272°
2026-05-07 18:35 56.87166 -31.94691 34376 ft 438 kts 272°
2026-05-07 18:36 56.86350 -32.05675 34363 ft 438 kts 272°
2026-05-07 18:36 56.85517 -32.16655 34357 ft 431 kts 272°
2026-05-07 18:37 56.84690 -32.27516 34376 ft 430 kts 272°
2026-05-07 18:37 56.83857 -32.38360 34387 ft 430 kts 272°
2026-05-07 18:38 56.83011 -32.49232 34380 ft 430 kts 272°
2026-05-07 18:38 56.82157 -32.60069 34391 ft 431 kts 272°
2026-05-07 18:39 56.81292 -32.70911 34312 ft 430 kts 272°
2026-05-07 18:39 56.80424 -32.81670 34368 ft 426 kts 272°
2026-05-07 18:40 56.79555 -32.92314 34380 ft 426 kts 272°
2026-05-07 18:40 56.78672 -33.03024 34381 ft 426 kts 271°
2026-05-07 18:41 56.77780 -33.13733 34385 ft 426 kts 271°
2026-05-07 18:41 56.76877 -33.24459 34387 ft 427 kts 271°
2026-05-07 18:42 56.75966 -33.35154 34347 ft 425 kts 271°
2026-05-07 18:42 56.75051 -33.45772 34381 ft 422 kts 271°
2026-05-07 18:43 56.74132 -33.56375 34373 ft 423 kts 271°
2026-05-07 18:43 56.73202 -33.66972 34387 ft 423 kts 270°
2026-05-07 18:44 56.72260 -33.77578 34386 ft 423 kts 270°
2026-05-07 18:44 56.71316 -33.88106 34389 ft 423 kts 270°
2026-05-07 18:45 56.70358 -33.98696 34360 ft 423 kts 270°
2026-05-07 18:45 56.69392 -34.09261 34381 ft 422 kts 270°
2026-05-07 18:46 56.68416 -34.19824 34388 ft 422 kts 270°
2026-05-07 18:46 56.67434 -34.30368 34389 ft 422 kts 270°
2026-05-07 18:47 56.66442 -34.40905 34384 ft 422 kts 270°
2026-05-07 18:47 56.65441 -34.51443 34386 ft 422 kts 270°
2026-05-07 18:48 56.64436 -34.61983 34376 ft 423 kts 269°
2026-05-07 18:48 56.63414 -34.72535 34390 ft 423 kts 269°
2026-05-07 18:49 56.62382 -34.83072 34381 ft 423 kts 269°
2026-05-07 18:49 56.61349 -34.93551 34389 ft 423 kts 269°
2026-05-07 18:50 56.60302 -35.04071 34379 ft 423 kts 269°
2026-05-07 18:50 56.59243 -35.14617 34382 ft 424 kts 269°
2026-05-07 18:51 56.58183 -35.25150 34367 ft 424 kts 268°
2026-05-07 18:51 56.57100 -35.35691 34378 ft 424 kts 268°
2026-05-07 18:52 56.56010 -35.46221 34379 ft 424 kts 267°
2026-05-07 18:52 56.54914 -35.56746 34379 ft 424 kts 267°
2026-05-07 18:53 56.53811 -35.67256 34379 ft 424 kts 267°
2026-05-07 18:53 56.52706 -35.77699 34378 ft 424 kts 267°
2026-05-07 18:54 56.51590 -35.88221 34365 ft 425 kts 266°
2026-05-07 18:54 56.50453 -35.98759 34373 ft 426 kts 266°
2026-05-07 18:55 56.49308 -36.09296 34378 ft 426 kts 266°
2026-05-07 18:55 56.48154 -36.19829 34379 ft 426 kts 266°
2026-05-07 18:56 56.46992 -36.30356 34376 ft 426 kts 266°
2026-05-07 18:56 56.45823 -36.40870 34339 ft 426 kts 265°
2026-05-07 18:57 56.44659 -36.51326 34367 ft 426 kts 265°
2026-05-07 18:57 56.43466 -36.61837 34372 ft 426 kts 265°
2026-05-07 18:58 56.42266 -36.72343 34371 ft 426 kts 265°
2026-05-07 18:58 56.41058 -36.82848 34373 ft 426 kts 264°
2026-05-07 18:59 56.39841 -36.93349 34374 ft 426 kts 264°
2026-05-07 18:59 56.38621 -37.03819 34337 ft 426 kts 264°
2026-05-07 19:00 56.37388 -37.14311 34363 ft 427 kts 264°
2026-05-07 19:00 56.36142 -37.24803 34370 ft 427 kts 264°
2026-05-07 19:01 56.34895 -37.35227 34374 ft 427 kts 264°
2026-05-07 19:01 56.33633 -37.45701 34367 ft 427 kts 264°
2026-05-07 19:02 56.32358 -37.56213 34361 ft 427 kts 263°
2026-05-07 19:02 56.31071 -37.66733 34370 ft 427 kts 263°
2026-05-07 19:03 56.29782 -37.77201 34361 ft 427 kts 263°
2026-05-07 19:03 56.28481 -37.87679 34365 ft 428 kts 263°
2026-05-07 19:04 56.27177 -37.98135 34364 ft 427 kts 263°
2026-05-07 19:04 56.26083 -38.06811 34361 ft 428 kts 263°
2026-05-07 19:05 56.24541 -38.18960 34354 ft 428 kts 263°
2026-05-07 19:05 56.23206 -38.29429 34349 ft 429 kts 262°
2026-05-07 19:06 56.21858 -38.39886 34355 ft 429 kts 262°
2026-05-07 19:06 56.20046 -38.53822 34355 ft 429 kts 262°
2026-05-07 19:07 56.18677 -38.64275 34355 ft 429 kts 262°
2026-05-07 19:07 56.17298 -38.74732 34354 ft 429 kts 262°
2026-05-07 19:08 56.15913 -38.85184 34335 ft 429 kts 261°
2026-05-07 19:08 56.14517 -38.95617 34348 ft 429 kts 261°
2026-05-07 19:09 56.13123 -39.05947 34339 ft 429 kts 261°
2026-05-07 19:09 56.11710 -39.16364 34349 ft 429 kts 261°
2026-05-07 19:10 56.10287 -39.26777 34348 ft 429 kts 261°
2026-05-07 19:10 56.08861 -39.37169 34343 ft 429 kts 261°
2026-05-07 19:11 56.07426 -39.47554 34327 ft 429 kts 260°
2026-05-07 19:11 56.05977 -39.57921 34336 ft 429 kts 260°
2026-05-07 19:12 56.04522 -39.68283 34332 ft 429 kts 260°
2026-05-07 19:12 56.03059 -39.78637 34333 ft 429 kts 260°
2026-05-07 19:13 56.01587 -39.88990 34325 ft 429 kts 260°
2026-05-07 19:13 56.00114 -39.99269 34296 ft 429 kts 259°
2026-05-07 19:14 55.98575 -40.09588 34315 ft 429 kts 259°
2026-05-07 19:14 55.96998 -40.19904 34313 ft 429 kts 258°
2026-05-07 19:15 55.95413 -40.30231 34312 ft 429 kts 258°
2026-05-07 19:15 55.93829 -40.40510 34306 ft 429 kts 258°
2026-05-07 19:16 55.92237 -40.50786 34299 ft 429 kts 258°
2026-05-07 19:16 55.90636 -40.61072 34287 ft 430 kts 258°
2026-05-07 19:17 55.89033 -40.71291 34291 ft 430 kts 258°
2026-05-07 19:17 55.87415 -40.81560 34285 ft 430 kts 257°
2026-05-07 19:18 55.85785 -40.91814 34293 ft 430 kts 257°
2026-05-07 19:18 55.84148 -41.02054 34275 ft 430 kts 257°
2026-05-07 19:19 55.82500 -41.12307 34281 ft 430 kts 257°
2026-05-07 19:19 55.81404 -41.19110 34258 ft 430 kts 257°